Location: Newark
(48.5156°N, 1.8989°W)
Time: 00:04:39
(UTC+00:00)

Transit 4A - All Passes

Search period start: 21 November 2019 00:00
Search period end: 01 December 2019 00:00
Orbit: 869 x 976 km, 66.8° (Epoch: 20 November)

Date Brightness Start Highest point End Pass type
(mag) Time Alt. Az. Time Alt. Az. Time Alt. Az.
21 Nov - 00:12:28 10° WNW 00:17:08 22° NNW 00:21:42 10° NNE night (unlit)
21 Nov - 02:03:07 10° NNW 02:05:56 13° N 02:08:43 10° NNE visible
21 Nov - 03:50:27 10° NNW 03:54:48 20° NNE 03:59:04 10° ENE visible
21 Nov - 05:36:29 10° NNW 05:42:23 62° NE 05:48:09 10° SE visible
21 Nov - 07:23:28 10° NW 07:28:20 28° WSW 07:33:09 10° SSW daylight
21 Nov - 20:47:06 10° S 20:52:49 38° ESE 20:58:25 10° NE night (unlit)
21 Nov - 22:33:03 10° WSW 22:39:05 50° NW 22:45:00 10° NNE night (unlit)
22 Nov - 00:22:46 10° WNW 00:26:55 18° NNW 00:31:00 10° NNE night (unlit)
22 Nov - 02:13:00 10° NNW 02:15:52 13° N 02:18:42 10° NNE visible
22 Nov - 03:59:45 10° NNW 04:04:32 24° NNE 04:09:15 10° E visible
22 Nov - 05:45:49 10° NW 05:51:47 84° NE 05:57:37 10° SE visible
22 Nov - 07:33:25 10° WNW 07:37:23 19° WSW 07:41:17 10° SSW daylight
22 Nov - 20:55:57 10° SSW 21:02:01 54° ESE 21:07:57 10° NE night (unlit)
22 Nov - 22:42:52 10° WSW 22:48:37 38° NW 22:54:16 10° NNE night (unlit)
23 Nov - 00:33:07 10° NW 00:36:45 16° NNW 00:40:21 10° NNE night (unlit)
23 Nov - 02:22:39 10° NNW 02:25:48 14° N 02:28:54 10° NE visible
23 Nov - 04:09:00 10° NNW 04:14:14 30° NE 04:19:20 10° E visible
23 Nov - 05:55:13 10° NW 06:01:07 71° WSW 06:06:52 10° SSE visible
23 Nov - 07:44:04 10° WNW 07:46:21 12° W 07:48:37 10° SW daylight
23 Nov - 19:22:38 10° SE 19:25:53 15° ESE 19:29:05 10° ENE night (unlit)
23 Nov - 21:05:03 10° SSW 21:11:17 75° ESE 21:17:23 10° NE night (unlit)
23 Nov - 22:52:50 10° W 22:58:13 30° NW 23:03:31 10° NNE night (unlit)
24 Nov - 00:43:28 10° NW 00:46:39 14° N 00:49:48 10° NNE night (unlit)
24 Nov - 02:32:08 10° NNW 02:35:41 16° NNE 02:39:11 10° NE visible
24 Nov - 04:18:17 10° NNW 04:23:49 38° NE 04:29:14 10° ESE visible
24 Nov - 06:04:40 10° NW 06:10:20 50° WSW 06:15:55 10° S visible
24 Nov - 19:30:20 10° SSE 19:34:54 22° ESE 19:39:24 10° ENE night (unlit)
24 Nov - 21:14:22 10° SW 21:20:38 81° NW 21:26:45 10° NE night (unlit)
24 Nov - 23:02:57 10° W 23:07:54 24° NNW 23:12:46 10° NNE night (unlit)
25 Nov - 00:53:42 10° NW 00:56:35 13° N 00:59:26 10° NNE night (unlit)
25 Nov - 02:41:31 10° NNW 02:45:32 18° NNE 02:49:29 10° ENE visible
25 Nov - 04:27:34 10° NNW 04:33:21 51° NE 04:39:00 10° ESE visible
25 Nov - 06:14:15 10° NW 06:19:31 35° WSW 06:24:41 10° S visible
25 Nov - 19:38:38 10° S 19:43:59 31° ESE 19:49:14 10° NE night (unlit)
25 Nov - 21:23:53 10° SW 21:30:02 60° NW 21:36:03 10° NNE night (unlit)
25 Nov - 23:13:12 10° WNW 23:17:39 20° NNW 23:22:03 10° NNE night (unlit)
26 Nov - 01:03:45 10° NNW 01:06:31 13° N 01:09:16 10° NNE night (unlit)
26 Nov - 02:50:49 10° NNW 02:55:20 21° NNE 02:59:44 10° ENE visible
26 Nov - 04:36:52 10° NNW 04:42:47 69° NE 04:48:34 10° SE visible
26 Nov - 06:24:01 10° WNW 06:28:36 24° WSW 06:33:08 10° SSW visible
26 Nov - 19:47:17 10° S 19:53:08 43° ESE 19:58:52 10° NE visible
26 Nov - 21:33:35 10° WSW 21:39:32 45° NW 21:45:20 10° NNE night (unlit)
26 Nov - 23:23:31 10° WNW 23:27:28 17° NNW 23:31:21 10° NNE night (unlit)
27 Nov - 01:13:33 10° NNW 01:16:27 14° N 01:19:21 10° NE night (unlit)
27 Nov - 03:00:06 10° NNW 03:05:02 26° NNE 03:09:54 10° E visible
27 Nov - 04:46:13 10° NW 04:52:09 87° SW 04:57:59 10° SSE visible
27 Nov - 06:34:08 10° WNW 06:37:37 16° WSW 06:41:05 10° SW visible
27 Nov - 18:15:36 10° ESE 18:17:10 11° E 18:18:43 10° E visible
27 Nov - 19:56:14 10° SSW 20:02:21 61° ESE 20:08:21 10° NE visible
27 Nov - 21:43:28 10° WSW 21:49:05 35° NW 21:54:36 10° NNE night (unlit)
27 Nov - 23:33:53 10° NW 23:37:20 15° NNW 23:40:44 10° NNE night (unlit)
28 Nov - 01:23:07 10° NNW 01:26:22 15° NNE 01:29:35 10° NE night (unlit)
28 Nov - 03:09:22 10° NNW 03:14:42 33° NE 03:19:54 10° ESE visible
28 Nov - 04:55:38 10° NW 05:01:27 63° WSW 05:07:09 10° SSE visible
28 Nov - 06:45:40 10° W 06:46:34 10° W 06:47:27 10° WSW visible
28 Nov - 18:22:20 10° SE 18:26:08 17° ESE 18:29:53 10° ENE visible
28 Nov - 20:05:25 10° SSW 20:11:39 84° ESE 20:17:46 10° NE visible
28 Nov - 21:53:29 10° W 21:58:43 28° NW 22:03:50 10° NNE night (unlit)
28 Nov - 23:44:12 10° NW 23:47:15 14° N 23:50:14 10° NNE night (unlit)
29 Nov - 01:32:33 10° NNW 01:36:15 16° NNE 01:39:54 10° ENE night (unlit)
29 Nov - 03:18:38 10° NNW 03:24:16 42° NE 03:29:47 10° ESE visible
29 Nov - 05:05:07 10° NW 05:10:39 44° WSW 05:16:06 10° S visible
29 Nov - 18:30:18 10° SSE 18:35:11 25° ESE 18:39:58 10° NE visible
29 Nov - 20:14:48 10° SW 20:21:02 73° NW 20:27:06 10° NNE visible
29 Nov - 22:03:40 10° W 22:08:25 23° NNW 22:13:06 10° NNE night (unlit)
29 Nov - 23:54:22 10° NNW 23:57:11 13° N 23:59:56 10° NNE night (unlit)
30 Nov - 01:41:54 10° NNW 01:46:04 19° NNE 01:50:11 10° ENE night (unlit)
30 Nov - 03:27:55 10° NNW 03:33:45 57° NE 03:39:28 10° SE visible
30 Nov - 05:14:45 10° NW 05:19:48 30° WSW 05:24:46 10° S visible
30 Nov - 18:38:45 10° S 18:44:17 35° ESE 18:49:44 10° NE visible
30 Nov - 20:24:23 10° SW 20:30:27 54° NW 20:36:24 10° NNE visible
30 Nov - 22:13:57 10° WNW 22:18:12 19° NNW 22:22:22 10° NNE night (unlit)
